Location: Lane
(33.5226°N, 79.8788°W)
Time: 03:45:36
(UTC+00:00)

Explorer 7 - Pass Details

Date: 11 October 2022
Orbit: 481 x 665 km, 50.3° (Epoch: 01 December)

Event Time Altitude Azimuth Distance (km) Brightness Sun altitude
Rises 13:12:11 0° 259° (W) 2,938 10.1 21.3°
Reaches altitude 10° 13:14:46 10° 271° (W) 2,052 9.3 21.8°
Maximum altitude 13:18:50 28° 330° (NNW) 1,251 8.4 22.6°
Drops below altitude 10° 13:22:59 10° 29° (NNE) 2,089 9.9 23.3°
Sets 13:25:39 0° 41° (NE) 3,002 10.8 23.8°
